This is the latest recevied weather packets stored in our database for station/object KM4KBD. If no packets are shown the sender has not sent any weather packets the latest 10 day(s).
| Time | Temp. | Humidity | Pressure | Rain* | Wind** | Luminosity | Snow |
|---|---|---|---|---|---|---|---|
| 1777913780 | 21.11° C | 58% | 1017.6 hPa | 0 mm | - | 749 W/m² | - |
| 1777913477 | 20.56° C | 60% | 1017.6 hPa | 0 mm | - | 747 W/m² | - |
| 1777913173 | 20.56° C | 60% | 1017.8 hPa | 0 mm | - | 743 W/m² | - |
| 1777912870 | 20.56° C | 59% | 1017.8 hPa | 0 mm | - | 741 W/m² | - |
| 1777912566 | 20° C | 59% | 1018 hPa | 0 mm | - | 738 W/m² | - |
| 1777912263 | 20° C | 60% | 1017.8 hPa | 0 mm | - | 730 W/m² | - |
| 1777911959 | 20° C | 61% | 1017.9 hPa | 0 mm | - | 726 W/m² | - |
| 1777911655 | 20° C | 63% | 1018 hPa | 0 mm | - | 721 W/m² | - |
| 1777911351 | 20° C | 62% | 1018.1 hPa | 0 mm | - | 718 W/m² | - |
| 1777911049 | 19.44° C | 64% | 1018.1 hPa | 0 mm | - | 715 W/m² | - |
| 1777910747 | 19.44° C | 65% | 1018.3 hPa | 0 mm | - | 699 W/m² | - |
| 1777910443 | 18.89° C | 65% | 1018.4 hPa | 0 mm | - | 706 W/m² | - |
| 1777910139 | 18.33° C | 64% | 1018.3 hPa | 0 mm | - | 507 W/m² | - |
| 1777909838 | 18.33° C | 66% | 1018.6 hPa | 0 mm | - | 317 W/m² | - |
| 1777909533 | 18.33° C | 62% | 1018.4 hPa | 0 mm | - | 534 W/m² | - |
| 1777909231 | 17.22° C | 65% | 1018.5 hPa | 0 mm | - | 525 W/m² | - |
| 1777908929 | 17.22° C | 65% | 1018.5 hPa | 0 mm | - | 442 W/m² | - |
| 1777908627 | 17.22° C | 67% | 1018.6 hPa | 0 mm | - | 455 W/m² | - |
| 1777908323 | 17.22° C | 66% | 1018.5 hPa | 0 mm | - | 262 W/m² | - |
| 1777908020 | 16.67° C | 66% | 1018.9 hPa | 0 mm | - | 330 W/m² | - |
| 1777907715 | 16.67° C | 66% | 1018.9 hPa | 0 mm | - | 267 W/m² | - |
| 1777907410 | 16.67° C | 64% | 1018.9 hPa | 0 mm | - | 312 W/m² | - |
| 1777907108 | 16.67° C | 64% | 1019 hPa | 0 mm | - | 443 W/m² | - |
| 1777906805 | 16.67° C | 66% | 1018.9 hPa | 0 mm | - | 429 W/m² | - |
| 1777906502 | 16.11° C | 66% | 1019.1 hPa | 0 mm | - | 425 W/m² | - |
* Rain latest hour (hover to see other rain measurements)
** Current wind speed in m/s (hover to see current wind gust speed)